COSMOS 1823 DEB, 43322

Orbit data source: Space-Track

COSMOS 1823 DEB, 43322 is space debris in LEO originally from a launch on Fri, 20 Feb 1987 UTC launched from the Plesetsk Missile And Space Complex (PKMTR). Debris objects in space refer to the collection of defunct objects orbiting the Earth. Examples of debris include non-operational satellites, rocket bodies, and fragments generated from explosions, collisions, or faulty payload assembly.

Loading next visibility...
Identifier
43322, 1987-020FK
Orbit
LEO
Country
Flag of CISCIS
Related business
Manufacturer
Unknown
Mission
Spacecraft
Bus & Motor
Unknown
Mass
Unknown
Launch date (UTC)
1987-02-20 (39 years ago)
Launch vehicle
Unknown
Launch site
Plesetsk Missile And Space Complex (PKMTR)
Object type
Payload
Rocket body
Debris
Shape & HBR
Unknown shape, 0.1 m
Radar Cross Section
Small (<0.1 m²)

Expand to show TLE details & history
Last TLE update: 5 days ago

TLE from 5 days ago
0 COSMOS 1823 DEB
1 43322U 87020FK  26168.66748592  .00000268  00000-0  20677-2 0  9991
2 43322  73.5942  36.1748 0022699 241.2747 118.6016 12.42685148446862
Epoch: 2026-06-17T16:01Z
TLE epoch observation values (Epoch: 2026-06-17T16:01:10.783Z)
Latitude
-0.00006°
Longitude
-110.04202°
Altitude
1,506.177 km
Speed
7.108 km/s
True Right ascension
02h 24m 41s
True Declination
0° 00' 00"
Sunlit
Object was in daylight at epoch
Visualization orbit readout
Latitude
Unknown
Longitude
Unknown
Altitude
Unknown
Speed
Unknown
Apparent Right ascension
Unknown
Apparent Declination
Unknown
Sunlit
N/A
Visualization observer readout
Local Sidereal Time
21:24:23
Azimuth
Unknown
Elevation
Unknown
Doppler factor
Unknown
Orbital elements
Apogee altitude
1,510.986 km
Perigee altitude
1,475.252 km
Semi-major axis
7,871.256 km
Eccentricity
0.00227
Inclination
73.5942°
RAAN
36.1748°
Arg. of periapsis
241.2747°
True anomaly
118.82966°
Mean anomaly
118.6016°
Eccentric anomaly
118.71566°
Mean motion
3.10797 °/min
Orbital period
115.83 mins
BSTAR
0.0020677
Loading maneuver chart data...
Computing Atmospheric mass density...

Documentation

Showing up to 5 results
|